Regional Weather Roundup
Issued by NWS

Home | Current Version | Previous Version | Text Only | Print | Product List | Glossary Off
Versions: 1 2 3 4 5 6 7 8 9 10 11 12 13 14 15 16 17 18 19 20 21 22 23 24 25 26 27 28 29 30 31 32 33 34 35 36 37 38 39 40 41 42 43 44 45 46 47 48 49 50

000
ASUS43 KOAX 010602
RWRNE

WEATHER ROUNDUP FOR NEBRASKA
NATIONAL WEATHER SERVICE OMAHA NE
100 AM CDT SAT NOV 01 2014

NOTES: SATELLITE DATA IS BEING USED TO AUGMENT CLOUD COVER ABOVE
       12000 FEET.
       "FAIR" INDICATES FEW OR NO CLOUDS BELOW 12,000 FEET WITH NO
       SIGNIFICANT WEATHER AND/OR OBSTRUCTIONS TO VISIBILITY.

  * THESE STATIONS DO NOT REPORT WEATHER SUCH AS RAIN...SNOW OR FOG.

NEZ001>004-019>022-054>056-010700-
NEBRASKA PANHANDLE

CITY           SKY/WX    TMP DP  RH WIND       PRES   REMARKS
SCOTTSBLUFF    CLEAR     36  29  75 E12       30.02F WCI  28
6HR MIN TEMP:  36; 6HR MAX TEMP:  49;

ALLIANCE       PTCLDY    35  21  56 S23G32    30.04F WCI  23
6HR MIN TEMP:  35; 6HR MAX TEMP:  43;

CHADRON        CLEAR     43  26  51 S25G35    29.94F
6HR MIN TEMP:  43; 6HR MAX TEMP:  48;

KIMBALL        PTCLDY    34  27  75 S17       30.03F WCI  24
SIDNEY         PTCLDY    35  23  61 S14G23    30.08F WCI  26
6HR MIN TEMP:  35; 6HR MAX TEMP:  46;

$$

NEZ057>060-069>072-079>082-010700-
SOUTHWEST NEBRASKA

CITY           SKY/WX    TMP DP  RH WIND       PRES   REMARKS
NORTH PLATTE   CLEAR     33  14  45 SE13      30.23F WCI  24
6HR MIN TEMP:  33; 6HR MAX TEMP:  39;

IMPERIAL       PTCLDY    30  14  51 SE12      30.19F WCI  20
6HR MIN TEMP:  30; 6HR MAX TEMP:  42;

LEXINGTON      CLEAR     32  18  56 SE10      30.30F WCI  24
MCCOOK         CLEAR     30  15  53 E9        30.27F WCI  22
6HR MIN TEMP:  30; 6HR MAX TEMP:  40;

OGALLALA       PTCLDY    33  16  51 E5        30.17F WCI  28
$$

NEZ005>010-023>029-035>040-094-010700-
NORTH CENTRAL NEBRASKA

CITY           SKY/WX    TMP DP  RH WIND       PRES   REMARKS
VALENTINE      PTCLDY    34  13  41 S15       30.16F WCI  24
6HR MIN TEMP:  34; 6HR MAX TEMP:  42;

AINSWORTH      PTCLDY    32  14  48 S15G21    30.21F WCI  21
BROKEN BOW       N/A    N/A N/A N/A MISG      30.28F
O`NEILL        PTCLDY    31  17  55 SE14      30.31F WCI  21
ORD            PTCLDY    30  14  51 SE10      30.32F WCI  21
6HR MIN TEMP:  30; 6HR MAX TEMP:  37;

THEDFORD       CLEAR     34  14  44 S18       30.21F WCI  23
$$

NEZ041-046>049-061>064-073>077-083>087-010700-
SOUTH CENTRAL NEBRASKA

CITY           SKY/WX    TMP DP  RH WIND       PRES   REMARKS
GRAND ISLAND   PTCLDY    31  16  54 SE9       30.38F WCI  23
6HR MIN TEMP:  31; 6HR MAX TEMP:  35;

AURORA         PTCLDY    28  17  63 SE6       30.39S WCI  21
HASTINGS       CLEAR     31  14  49 S10       30.37F WCI  22
6HR MIN TEMP:  30; 6HR MAX TEMP:  37;

HEBRON         MOCLDY    24  15  71 CALM      30.42S
HOLDREGE       CLEAR     31  16  53 SE12      30.31F WCI  22
KEARNEY *      CLEAR     28  16  59 SE12      30.33F WCI  18
YORK           MOCLDY    30  18  59 S6        30.41S WCI  24
$$

NEZ011>018-030>034-042>045-010700-
NORTHEAST NEBRASKA

CITY           SKY/WX    TMP DP  RH WIND       PRES   REMARKS
NORFOLK        MOCLDY    31  18  58 SE10      30.39F WCI  22
6HR MIN TEMP:  29; 6HR MAX TEMP:  36;

ALBION         PTCLDY    27  17  66 SE7       30.37F WCI  20
BLAIR          PTCLDY    31  20  64 E6        30.44F WCI  25
FREMONT        PTCLDY    32  21  63 E6        30.44F WCI  27
TEKAMAH        PTCLDY    26  18  71 SE8       30.46F WCI  18
6HR MIN TEMP:  26; 6HR MAX TEMP:  36;

WAYNE          PTCLDY    31  19  61 SE8       30.41F WCI  23
$$

NEZ050>053-065>068-078-088>093-010700-
SOUTHEAST NEBRASKA

CITY           SKY/WX    TMP DP  RH WIND       PRES   REMARKS
LINCOLN        PTCLDY    27  19  72 CALM      30.45F
6HR MIN TEMP:  26; 6HR MAX TEMP:  37;

OMAHA EPPLEY   MOCLDY    32  19  58 SE5       30.48S WCI  27
6HR MIN TEMP:  32; 6HR MAX TEMP:  39;

BEATRICE       PTCLDY    29  19  64 CALM      30.44S
FALLS CITY     PTCLDY    30  21  69 CALM      30.46F
6HR MIN TEMP:  29; 6HR MAX TEMP:  38;

NEBRASKA CITY  MOCLDY    32  17  53 CALM      30.46S
PLATTSMOUTH    PTCLDY    31  17  57 E6        30.46S WCI  25
$$

NEZ044-045-051>053-067-010700-
OMAHA AREA

CITY           SKY/WX    TMP DP  RH WIND       PRES   REMARKS
OMAHA EPPLEY   MOCLDY    32  19  58 SE5       30.48S WCI  27
6HR MIN TEMP:  32; 6HR MAX TEMP:  39;

BLAIR          PTCLDY    31  20  64 E6        30.44F WCI  25
FREMONT        PTCLDY    32  21  63 E6        30.44F WCI  27
MILLARD        PTCLDY    31  24  78 CALM      30.47R
OFFUTT AFB     PTCLDY    28  21  75 CALM      30.46S
PLATTSMOUTH    PTCLDY    31  17  57 E6        30.46S WCI  25
WAHOO          FAIR      26  20  79 SE3       30.45S
$$



USA.gov is the U.S. government's official web portal to all federal, state and local government web resources and services.